Torna al catalogo

STARLINK-38149

AttivoComunicazioniSSO
NORAD 100169·PAYLOAD·🇺🇸 United States

Lanciato Jul 25, 2026 da Vandenberg Space Force Base

Loading…

Prossimi Passaggi (prossime 24 ore)

TLE

AggiornatoSource: Space-Track

Epoca: Sep 14, 2026, 22:37 UTC

1 A0169U 26171X   26257.94246139  .00014619  00000-0  45405-3 0  9995
2 A0169  97.2836 290.4553 0001041  70.7131 289.4224 15.33459890  9283

Traccia STARLINK-38149 in tempo reale con AllMySat

Download on the App Store